Location: Springville
(37.3745°N, 89.2676°W)
Time: 00:05:16
(UTC+00:00)

SAR-Lupe-1 - Pass Details

Date: 29 October 2020
Orbit: 480 x 485 km, 98.2° (Epoch: 26 November)

Event Time Altitude Azimuth Distance (km) Brightness Sun altitude
Rises 23:41:40 0° 16° (NNE) 2,550 7.5 -8.5°
Reaches altitude 10° 23:43:45 10° 19° (NNE) 1,666 6.5 -8.9°
Maximum altitude 23:47:18 63° 102° (ESE) 541 4.0 -9.6°
Drops below altitude 10° 23:50:50 10° 184° (S) 1,656 6.9 -10.3°
Sets 23:52:54 0° 187° (S) 2,532 7.9 -10.7°
